Home > Weather > Cayenne > Past weeks

Flag for French Guiana Past Weather in Cayenne, French Guiana — Yesterday and Last 2 Weeks

Now
81 °F

Passing clouds.


Feels Like: 85 °F
Forecast: 76 / 87 °F
Wind: 5 mph from Northeast

Location: Cayenne / Rochambeau

Current Time: Aug 27, 2016 at 3:52:28 PM

Latest Report: Aug 27, 2016 at 3:30 PM


Visibility: N/A

Pressure: 29.86 "Hg

Humidity: 79%

Dew Point: 73 °F

Location of CayenneLocation

Past Weather in Cayenne — Graph

°F

Cayenne Temperature Yesterday

Maximum temperature yesterday: 90 °F (at 1:00 PM)
Minimum temperature yesterday: 73 °F (at 5:30 AM)
Average temperature yesterday: 82 °F

High & Low Weather Summary for the Past Weeks

 TemperatureHumidityPressure
High91 °F (Aug 13, 12:00 PM)100% (Aug 13, 2:00 AM)29.98 "Hg (Aug 13, 2:00 AM)
Low72 °F (Aug 14, 4:30 AM)46% (Aug 17, 2:00 PM)29.83 "Hg (Aug 12, 4:00 PM)
Average81 °F83%29.90 "Hg
* Reported Aug 12 3:00 PM — Aug 27 3:00 PM, Cayenne, Weather by CustomWeather, © 2016

Note: Actual official high and low records may vary slightly from our data, if they occured in-between our weather recording intervals... More about our weather records

Advertising

Cayenne Weather History for the Previous 24 Hours

Scroll right to see more
 ConditionsComfort  
Time TempWeatherWind HumidityBarometerVisibility
3:00 PM
Sat, Aug 27
75 °FBroken clouds.5 mph94%29.86 "HgN/A
2:30 PM75 °FLight rain. Fog.10 mph94%29.89 "Hg3 mi
2:00 PM81 °FPartly sunny.15 mph74%29.89 "HgN/A
1:30 PM86 °FScattered clouds.10 mph66%29.89 "HgN/A
1:00 PM88 °FWarm.9 mph62%29.89 "HgN/A
12:30 PM88 °FPartly sunny.9 mph59%29.92 "HgN/A
12:00 PM90 °FBroken clouds.5 mph59%29.92 "HgN/A
11:30 AM90 °FPartly sunny.9 mph59%29.92 "HgN/A
11:00 AM88 °FPartly sunny.7 mph59%29.92 "HgN/A
10:30 AM86 °FPassing clouds.6 mph66%29.92 "HgN/A
10:00 AM86 °FScattered clouds.5 mph70%29.92 "HgN/A
9:30 AM84 °FPassing clouds.2 mph79%29.92 "HgN/A
9:00 AM81 °FPassing clouds.No wind84%29.92 "HgN/A
8:30 AM81 °FSunny.No wind84%29.92 "Hg10 mi
8:00 AM77 °FSunny.1 mph94%29.92 "Hg10 mi
7:30 AM75 °FSunny.No wind100%29.89 "Hg10 mi
7:00 AM73 °FSunny.No wind94%29.89 "Hg10 mi
6:30 AM72 °FSunny.No wind100%29.89 "Hg10 mi
6:00 AM73 °FPassing clouds.1 mph100%29.89 "HgN/A
5:30 AM73 °FPassing clouds.No wind94%29.86 "HgN/A
5:00 AM73 °FClear.No wind100%29.86 "Hg10 mi
4:30 AM73 °FPassing clouds.2 mph100%29.86 "HgN/A
4:00 AM73 °FClear.1 mph100%29.86 "Hg10 mi
3:30 AM73 °FPassing clouds.2 mph100%29.86 "HgN/A
3:00 AM73 °FPassing clouds.No wind100%29.86 "HgN/A
2:30 AM73 °FPassing clouds.No wind100%29.86 "HgN/A
2:00 AM73 °FClear.No wind100%29.86 "Hg10 mi
1:30 AM75 °FClear.No wind94%29.86 "Hg10 mi
1:00 AM75 °FPassing clouds.No wind94%29.89 "HgN/A
12:30 AM75 °FPassing clouds.No wind100%29.89 "HgN/A
12:00 AM75 °FClear.2 mph100%29.92 "Hg10 mi
11:30 PM
Fri, Aug 26
77 °FClear.No wind94%29.92 "Hg10 mi
11:00 PM77 °FClear.No wind94%29.92 "Hg10 mi
10:30 PM79 °FClear.2 mph89%29.89 "Hg10 mi
10:00 PM79 °FClear.3 mph89%29.89 "Hg10 mi
9:30 PM79 °FClear.2 mph89%29.89 "Hg10 mi
9:00 PM81 °FClear.6 mph84%29.89 "Hg10 mi
8:30 PM81 °FClear.6 mph84%29.86 "Hg10 mi
8:00 PM81 °FClear.6 mph84%29.86 "Hg10 mi
7:30 PM81 °FClear.6 mph84%29.86 "Hg10 mi
7:00 PM82 °FPassing clouds.5 mph79%29.86 "HgN/A
6:30 PM84 °FSunny.7 mph74%29.86 "Hg10 mi
6:00 PM84 °FPassing clouds.7 mph74%29.83 "HgN/A
5:30 PM86 °FSunny.10 mph70%29.83 "Hg10 mi
5:00 PM86 °FSunny.12 mph66%29.83 "Hg10 mi
4:30 PM88 °FPassing clouds.13 mph66%29.83 "HgN/A
4:00 PM88 °FScattered clouds.14 mph66%29.83 "HgN/A
3:30 PM88 °FBroken clouds.14 mph66%29.83 "HgN/A
3:00 PM88 °FBroken clouds.14 mph70%29.83 "HgN/A
Weather by CustomWeather, © 2016

See weather overviewHow to use our weather pages